{"data":{"norad_id":58113,"epoch":"2026-05-24T11:41:35.100384Z","epoch_age_seconds":126096,"freshness":"FRESH","line1":"1 58113U 23161S   26144.48721181  .00000374  00000+0  24759-4 0  9994","line2":"2 58113  53.1593 173.6676 0001087  77.2204 282.8919 15.30196571146020","mean_motion":15.30196571,"eccentricity":0.0001087,"inclination_deg":53.1593,"raan_deg":173.6676,"arg_perigee_deg":77.2204,"mean_anomaly_deg":282.8919,"bstar":2.4759e-5,"rev_number":14602,"period_min":94.105556586037,"perigee_km":474.4803473315,"apogee_km":475.97026829722,"semimajor_km":6853.3623078144,"source":"CELESTRAK","updated_at":"2026-05-25T13:38:18.529369Z"}}